Карточка аэропорта USNN

Внимание!
Информация на этой странице в стадии наполнения.
Если вы не увидели какой-то информации, или заметили неточность - пожалуйста сообщите нам!
Спасибо!
Команда RU-STAFF
Название аэропортаНижневартовск
Название аэропорта (англ.)Nizhnevartovsk
Превышение177 ft. (53.9 m.)
Координаты60°57', 76°28.998'
Высота перехода800m
Эшелон переходаQFE>=756mm:FL040; QFE<756=>729:FL050; QFE<729:FL060
Коды ответчика5630-5633
Зона ОрВДТюмень РПИ (USTV)
Данные METARUSNN 260200Z 20004MPS 9999 -RA BKN007 OVC022 04/04 Q1003 R21/290251 NOSIG RMK QFE747
Проноз погоды (TAF)USNN 260147Z 2603/2703 24005G12MPS 6000 -SHRA SCT005 BKN016CB TEMPO 2603/2606 1000 SHRA BR BKN002 BKN015CB BECMG 2606/2607 01003G11MPS BECMG 2609/2610 FEW007 BKN016CB BECMG 2615/2617 9999 NSW
NOTAMshow/hide NOTAM
AWOS   TABLE

Информация о ВПП

ВПП Длина ВПП (м.) Покрытие Курс ВПП Частота ILS
033200Асфальтобетон26110.5
213200Асфальтобетон206111.9

Диспетчерские позиции

Позывной Наименование органа УВД Частота
USNN_APPНижневартовск - Круг120.400
USNN_TWRНижневартовск - Вышка118.100



Спутниковое изображение